sat.trackr.live / text

‹ back to catalog

STARLINK-34696

NORAD 64808 · 2025-150U

PAYLOAD ACTIVE UNKNOWN

§ Identity

Operator
Country
US
Launch date
2025-07-16
Launch site
AFWTR
Launch vehicle
Mass (kg)
RCS (m²)

Purposes: comms

External: N2YO · Heavens-Above · Gunter

§ Orbital elements

Epoch: 2026-05-24T15:38:16.064448Z

Period
96.11 min
Inclination
70.0006°
Eccentricity
0.0002932
Mean motion
14.98336068 rev/d
Perigee alt
570.0 km
Apogee alt
574.1 km
Semi-major
6,950.2 km
B*
2.3524e-4
RAAN
302.9867°
Arg perigee
268.2299°
Mean anomaly
91.8525°
Rev number
4,789

§ Raw data

STARLINK-346961 64808U 25150U   26144.65157482  .00002715  00000+0  23524-3 0  99972 64808  70.0006 302.9867 0002932 268.2299  91.8525 14.98336068 47896

JSON: /api/v1/satellites/64808 · /tle

For live sub-satellite position, see the globe view (requires WebGL).

§ Visibility from observer

Set your observer location to see the next 7 days of passes ≥ 10°. The values pass through the URL so the page stays shareable.

No JS? Fill the form by hand. The geolocation button needs JavaScript.